Starlink 31263

operational
NORAD ID: 58832 Int'l Des: 2024-017 Owner: SPXS Country: US Constellation: starlink
LEOCIRCULAR

About Starlink 31263

Description loading...

Live Position

Loading 3D Globe...

Upcoming Passes

Altitude History

Altitude vs Time

uPlot chart will show altitude changes over time

Two-Line Element Set

1 58832U 24017G 25304.63334948 -.00001019 00000-0 -22316-4 0 9995
2 58832 53.1617 73.3661 0001212 91.5586 268.5554 15.30178582100553
Epoch: Oct 31, 2025 • Age: 5 hours

Current Status

Altitude 475.2 km
Velocity 7.63 km/s
Sub-Earth Point 10.19°N, 105.24°W
Launch Date Jan 24, 2024
Age 1.7 years
Type internet

Technical Details

Classification Payload
Mass 730.00 kg
Dry Mass 700.00 kg
Total Mass 730.00 kg
Length 0.30 m
Diameter 4.10 m
Span 29.00 m
Shape Box + pan
Manufacturer SPXS
Bus Type Starlink V2M
Phase Status In Orbit
Owner/State SPXS/US

Large Constellations

Loading constellations...